FW4441 Weather Reports


Display with metric or nautical units.
time (UTC)temp
F
wind
direction
speed
MPH
gust
MPH
rain 1hr
in
rain 24hr
in
rain mn
in
humidity
%
barometer
mb
20210124111542 36 20 4.0 0.0 0.00 0.00 0.00 89 1013.4
20210124110039 36 40 4.0 0.0 0.00 0.00 0.00 91 1013.7
20210124104600 35 53 3.0 0.0 0.00 0.00 0.00 91 1014.1
20210124103041 35 45 1.0 0.0 0.00 0.00 0.00 91 1014.1
20210124101536 34 45 1.0 0.0 0.00 0.00 0.00 91 1014.1
20210124100047 34 59 1.0 0.0 0.00 0.00 0.00 91 1014.4
20210124094548 33 158 2.0 0.0 0.00 0.00 0.00 90 1014.4
20210124093033 34 44 2.0 0.0 0.00 0.00 0.00 89 1014.4
20210124091537 35 42 3.0 0.0 0.00 0.00 0.00 89 1014.7
20210124090033 35 34 2.0 0.0 0.00 0.00 0.00 90 1014.7
20210124084532 35 57 1.0 0.0 0.00 0.00 0.00 90 1015.1
20210124083035 33 65 2.0 0.0 0.00 0.00 0.00 90 1015.1
20210124081535 33 345 1.0 0.0 0.00 0.00 0.00 90 1015.4
20210124080035 33 53 1.0 0.0 0.00 0.00 0.00 90 1015.4
20210124074530 33 32 0.0 0.0 0.00 0.00 0.00 89 1015.8
20210124073034 34 265 1.0 0.0 0.00 0.00 0.00 89 1015.8
20210124071544 34 286 3.0 0.0 0.00 0.00 0.00 89 1015.8
20210124070041 33 24 1.0 0.0 0.00 0.00 0.00 90 1016.1
20210124064527 33 267 1.0 0.0 0.00 0.00 0.00 91 1016.1
20210124063041 33 223 1.0 0.0 0.00 0.00 0.00 90 1016.5
20210124061538 33 228 1.0 0.0 0.00 0.00 0.00 90 1016.5
20210124060058 33 287 1.0 0.0 0.00 0.00 0.00 90 1016.8
20210124054533 32 67 1.0 0.0 0.00 0.00 0.00 91 1016.8
20210124053032 32 88 1.0 0.0 0.00 0.00 0.00 90 1017.2
20210124051538 33 267 3.0 0.0 0.00 0.00 0.00 90 1017.2
20210124050046 34 26 3.0 0.0 0.00 0.00 0.00 90 1017.2
20210124044535 32 70 2.0 0.0 0.00 0.00 0.00 92 1017.2
20210124043031 32 97 2.0 0.0 0.00 0.00 0.00 92 1017.5
20210124041533 32 125 1.0 0.0 0.00 0.00 0.00 92 1017.9
20210124040044 31 52 2.0 0.0 0.00 0.00 0.00 93 1017.9
20210124034534 31 124 0.0 0.0 0.00 0.00 0.00 92 1017.9
20210124033033 32 177 0.0 0.0 0.00 0.00 0.00 91 1018.2
20210124031541 32 112 0.0 0.0 0.00 0.00 0.00 92 1018.6
20210124030033 31 116 2.0 0.0 0.00 0.00 0.00 92 1018.6
20210124024529 32 157 0.0 0.0 0.00 0.00 0.00 91 1018.9
20210124023032 32 166 2.0 0.0 0.00 0.00 0.00 91 1018.9
20210124021537 32 157 1.0 0.0 0.00 0.00 0.00 91 1018.9
20210124020055 31 143 0.0 0.0 0.00 0.00 0.00 90 1018.9
20210124014534 33 180 0.0 0.0 0.00 0.00 0.00 87 1018.9
20210124013035 34 113 1.0 0.0 0.00 0.00 0.00 87 1018.9
20210124011534 35 151 2.0 0.0 0.00 0.00 0.00 86 1019.2
20210124010033 36 268 0.0 0.0 0.00 0.00 0.00 85 1019.2
20210124004533 39 270 1.0 0.0 0.00 0.00 0.00 85 1019.6
20210124003033 40 276 2.0 0.0 0.00 0.00 0.00 84 1019.6
20210124001540 41 306 2.0 0.0 0.00 0.00 0.00 84 1019.6
20210124000033 42 301 2.0 0.0 0.00 0.00 0.00 84 1019.9
20210123234539 42 326 2.0 0.0 0.00 0.00 0.00 85 1019.9
20210123233037 42 317 2.0 0.0 0.00 0.00 0.00 85 1019.9
20210123231528 42 321 2.0 0.0 0.00 0.00 0.00 85 1019.9
20210123230107 42 337 2.0 0.0 0.00 0.00 0.00 84 1020.3
20210123224532 42 269 1.0 0.0 0.00 0.00 0.00 81 1019.9
20210123223034 42 317 3.0 0.0 0.00 0.00 0.00 84 1019.9
20210123221544 42 328 2.0 0.0 0.00 0.00 0.00 85 1020.3
20210123220055 43 343 2.0 0.0 0.00 0.00 0.00 85 1020.3
20210123214543 42 309 1.0 0.0 0.00 0.00 0.00 86 1020.6
20210123213038 41 328 0.0 0.0 0.00 0.00 0.00 86 1021.0
20210123211533 41 315 0.0 0.0 0.00 0.00 0.00 86 1021.3
20210123210058 39 307 1.0 0.0 0.00 0.00 0.00 86 1021.3
20210123204545 38 247 2.0 0.0 0.00 0.00 0.00 87 1021.3
20210123203049 37 212 1.0 0.0 0.00 0.00 0.00 88 1021.7
20210123201535 38 283 1.0 0.0 0.00 0.00 0.00 90 1022.0
20210123200049 36 298 1.0 0.0 0.00 0.00 0.00 91 1022.0
20210123194533 35 303 2.0 0.0 0.00 0.00 0.00 92 1022.4
20210123193110 34 266 0.0 0.0 0.00 0.00 0.00 95 1022.4
20210123191545 32 345 0.0 0.0 0.00 0.00 0.00 97 1022.7
20210123190056 31 270 0.0 0.0 0.00 0.00 0.00 99 1022.4
20210123184538 30 225 0.0 0.0 0.00 0.00 0.00 99 1022.4
20210123183043 29 225 1.0 0.0 0.00 0.00 0.00 99 1022.4
20210123181642 29 225 0.0 0.0 0.00 0.00 0.00 99 1022.4
20210123180041 28 225 0.0 0.0 0.00 0.00 0.00 100 1022.4
20210123174539 28 265 0.0 0.0 0.00 0.00 0.00 100 1022.4
20210123173036 28 300 0.0 0.0 0.00 0.00 0.00 100 1022.0
20210123171536 27 315 0.0 0.0 0.00 0.00 0.00 100 1022.0
20210123170033 27 315 1.0 0.0 0.00 0.00 0.00 100 1022.0
20210123164533 27 316 2.0 0.0 0.00 0.00 0.00 99 1021.7
20210123163042 26 337 2.0 0.0 0.00 0.00 0.00 99 1021.7
20210123161528 26 353 2.0 0.0 0.00 0.00 0.00 99 1021.7
20210123160038 27 112 0.0 0.0 0.00 0.00 0.00 99 1021.3
20210123154535 26 112 0.0 0.0 0.00 0.00 0.00 100 1021.3
20210123153036 25 112 0.0 0.0 0.00 0.00 0.00 99 1021.3
20210123151550 25 112 1.0 0.0 0.00 0.00 0.00 99 1021.0
20210123150038 25 112 0.0 0.0 0.00 0.00 0.00 100 1021.0
20210123144541 25 135 1.0 0.0 0.00 0.00 0.00 99 1021.0
20210123143043 25 135 0.0 0.0 0.00 0.00 0.00 99 1021.0
20210123141536 25 135 1.0 0.0 0.00 0.00 0.00 99 1020.6
20210123140035 25 140 1.0 0.0 0.00 0.00 0.00 99 1020.6
20210123134610 25 123 2.0 0.0 0.00 0.00 0.00 99 1020.6
20210123133033 26 175 3.0 0.0 0.00 0.00 0.00 99 1020.3
20210123131534 26 140 2.0 0.0 0.00 0.00 0.00 99 1020.3
20210123130037 26 62 1.0 0.0 0.00 0.00 0.00 99 1020.3
20210123124531 26 22 0.0 0.0 0.00 0.00 0.00 99 1020.3
20210123123034 25 345 2.0 0.0 0.00 0.00 0.00 98 1020.3
20210123121534 25 337 2.0 0.0 0.00 0.00 0.00 98 1020.3
20210123120043 25 59 0.0 0.0 0.00 0.00 0.00 98 1020.3
20210123114537 26 90 0.0 0.0 0.00 0.00 0.00 98 1020.3
20210123113033 27 90 0.0 0.0 0.00 0.00 0.00 99 1020.6